Location: Unspecified
(0.0000°N, 0.0000°E)
Time: 18:37:55
(UTC+00:00)

Altair - Pass Details

Date: 24 July 2024
Orbit: 1502 x 1682 km, 47.2° (Epoch: 15 June)

Event Time Altitude Azimuth Distance (km) Brightness Sun altitude
Rises 00:25:01 0° 341° (NNW) 4,630 10.3 -69.7°
Enters shadow 00:25:06 - 341° (NNW) 4,609 10.2 -69.7°
Reaches altitude 10° 00:28:35 10° 352° (N) 3,664 - -69.5°
Maximum altitude 00:36:17 29° 49° (NE) 2,515 - -68.9°
Drops below altitude 10° 00:44:09 10° 106° (ESE) 3,773 - -68.2°
Sets 00:47:49 0° 116° (ESE) 4,788 - -67.8°
